| time (UTC) | temp F | wind direction | speed MPH | gust MPH | rain 1hr in | rain 24hr in | rain mn in | humidity % | barometer mb |
| 20260905160425 | 84 | 231 | 3.0 | 7.0 | 0.00 | 0.00 | 0.00 | 51 | 1021.9 |
| 20260905155923 | 85 | 266 | 3.0 | 8.0 | 0.00 | 0.00 | 0.00 | 50 | 1021.9 |
| 20260905155423 | 85 | 174 | 3.0 | 8.0 | 0.00 | 0.00 | 0.00 | 49 | 1021.9 |
| 20260905154923 | 85 | 224 | 3.0 | 9.0 | 0.00 | 0.00 | 0.00 | 48 | 1021.9 |
| 20260905154422 | 86 | 186 | 3.0 | 9.0 | 0.00 | 0.00 | 0.00 | 48 | 1021.8 |
| 20260905153917 | 86 | 214 | 3.0 | 11.0 | 0.00 | 0.00 | 0.00 | 47 | 1021.8 |
| 20260905153418 | 86 | 265 | 3.0 | 11.0 | 0.00 | 0.00 | 0.00 | 46 | 1021.9 |
| 20260905152917 | 86 | 217 | 3.0 | 10.0 | 0.00 | 0.00 | 0.00 | 45 | 1021.8 |
| 20260905152419 | 86 | 223 | 4.0 | 10.0 | 0.00 | 0.00 | 0.00 | 44 | 1021.8 |
| 20260905151916 | 86 | 215 | 4.0 | 9.0 | 0.00 | 0.00 | 0.00 | 42 | 1021.8 |
| 20260905151419 | 86 | 212 | 4.0 | 10.0 | 0.00 | 0.00 | 0.00 | 44 | 1021.8 |
| 20260905150915 | 86 | 201 | 5.0 | 10.0 | 0.00 | 0.00 | 0.00 | 44 | 1021.9 |
| 20260905150415 | 87 | 205 | 4.0 | 8.0 | 0.00 | 0.00 | 0.00 | 43 | 1021.8 |
| 20260905145914 | 87 | 192 | 3.0 | 8.0 | 0.00 | 0.00 | 0.00 | 44 | 1021.8 |
| 20260905145413 | 87 | 239 | 3.0 | 8.0 | 0.00 | 0.00 | 0.00 | 46 | 1021.9 |
| 20260905144913 | 87 | 159 | 4.0 | 10.0 | 0.00 | 0.00 | 0.00 | 48 | 1021.9 |
| 20260905144413 | 86 | 233 | 5.0 | 11.0 | 0.00 | 0.00 | 0.00 | 48 | 1021.9 |
| 20260905143413 | 86 | 132 | 4.0 | 10.0 | 0.00 | 0.00 | 0.00 | 47 | 1022.0 |
| 20260905142911 | 87 | 233 | 4.0 | 10.0 | 0.00 | 0.00 | 0.00 | 47 | 1021.9 |
| 20260905142408 | 87 | 219 | 4.0 | 10.0 | 0.00 | 0.00 | 0.00 | 47 | 1022.0 |
| 20260905141910 | 86 | 218 | 4.0 | 10.0 | 0.00 | 0.00 | 0.00 | 48 | 1022.0 |
| 20260905141407 | 86 | 187 | 6.0 | 12.0 | 0.00 | 0.00 | 0.00 | 49 | 1021.9 |
| 20260905140907 | 86 | 228 | 6.0 | 12.0 | 0.00 | 0.00 | 0.00 | 48 | 1022.0 |
| 20260905140407 | 87 | 217 | 5.0 | 12.0 | 0.00 | 0.00 | 0.00 | 47 | 1022.0 |
| 20260905135907 | 87 | 186 | 5.0 | 15.0 | 0.00 | 0.00 | 0.00 | 47 | 1022.0 |
| 20260905135407 | 87 | 212 | 6.0 | 15.0 | 0.00 | 0.00 | 0.00 | 46 | 1022.0 |
| 20260905134905 | 87 | 216 | 5.0 | 11.0 | 0.00 | 0.00 | 0.00 | 44 | 1022.1 |
| 20260905134407 | 87 | 225 | 4.0 | 11.0 | 0.00 | 0.00 | 0.00 | 45 | 1022.1 |
| 20260905133905 | 87 | 199 | 4.0 | 11.0 | 0.00 | 0.00 | 0.00 | 45 | 1022.1 |
| 20260905133403 | 87 | 227 | 5.0 | 11.0 | 0.00 | 0.00 | 0.00 | 47 | 1022.2 |
| 20260905132904 | 87 | 247 | 4.0 | 11.0 | 0.00 | 0.00 | 0.00 | 45 | 1022.2 |
| 20260905131859 | 87 | 210 | 3.0 | 10.0 | 0.00 | 0.00 | 0.00 | 43 | 1022.3 |
| 20260905131358 | 87 | 274 | 4.0 | 10.0 | 0.00 | 0.00 | 0.00 | 47 | 1022.3 |
| 20260905130902 | 87 | 233 | 5.0 | 14.0 | 0.00 | 0.00 | 0.00 | 47 | 1022.3 |
| 20260905130358 | 87 | 229 | 5.0 | 14.0 | 0.00 | 0.00 | 0.00 | 45 | 1022.6 |
| 20260905125901 | 88 | 211 | 5.0 | 12.0 | 0.00 | 0.00 | 0.00 | 42 | 1022.6 |
| 20260905125359 | 88 | 234 | 4.0 | 12.0 | 0.00 | 0.00 | 0.00 | 45 | 1022.6 |
| 20260905124859 | 87 | 184 | 4.0 | 11.0 | 0.00 | 0.00 | 0.00 | 44 | 1022.6 |
| 20260905123855 | 87 | 213 | 3.0 | 13.0 | 0.00 | 0.00 | 0.00 | 44 | 1022.5 |
| 20260905123356 | 88 | 236 | 3.0 | 9.0 | 0.00 | 0.00 | 0.00 | 43 | 1022.6 |
| 20260905122855 | 88 | 222 | 5.0 | 12.0 | 0.00 | 0.00 | 0.00 | 43 | 1022.7 |
| 20260905122354 | 87 | 214 | 5.0 | 12.0 | 0.00 | 0.00 | 0.00 | 44 | 1022.7 |
| 20260905121355 | 87 | 210 | 3.0 | 10.0 | 0.00 | 0.00 | 0.00 | 46 | 1022.8 |
| 20260905120854 | 87 | 285 | 3.0 | 8.0 | 0.00 | 0.00 | 0.00 | 45 | 1022.8 |
| 20260905120356 | 87 | 151 | 3.0 | 8.0 | 0.00 | 0.00 | 0.00 | 45 | 1022.8 |
| 20260905115854 | 87 | 148 | 2.0 | 8.0 | 0.00 | 0.00 | 0.00 | 45 | 1022.8 |
| 20260905115355 | 87 | 99 | 3.0 | 10.0 | 0.00 | 0.00 | 0.00 | 46 | 1022.9 |
| 20260905114855 | 86 | 118 | 4.0 | 10.0 | 0.00 | 0.00 | 0.00 | 45 | 1022.9 |
| 20260905114354 | 87 | 188 | 3.0 | 10.0 | 0.00 | 0.00 | 0.00 | 44 | 1022.9 |
| 20260905113854 | 87 | 158 | 2.0 | 7.0 | 0.00 | 0.00 | 0.00 | 46 | 1022.9 |
| 20260905113356 | 86 | 131 | 3.0 | 7.0 | 0.00 | 0.00 | 0.00 | 45 | 1022.9 |
| 20260905112857 | 86 | 220 | 3.0 | 8.0 | 0.00 | 0.00 | 0.00 | 46 | 1023.0 |
| 20260905112356 | 86 | 149 | 3.0 | 8.0 | 0.00 | 0.00 | 0.00 | 46 | 1023.1 |
| 20260905111852 | 86 | 160 | 2.0 | 8.0 | 0.00 | 0.00 | 0.00 | 44 | 1022.8 |
| 20260905111353 | 86 | 151 | 2.0 | 8.0 | 0.00 | 0.00 | 0.00 | 45 | 1022.9 |
| 20260905110851 | 86 | 174 | 2.0 | 9.0 | 0.00 | 0.00 | 0.00 | 45 | 1022.8 |
| 20260905110352 | 86 | 71 | 2.0 | 9.0 | 0.00 | 0.00 | 0.00 | 45 | 1023.1 |
| 20260905105851 | 86 | 110 | 2.0 | 6.0 | 0.00 | 0.00 | 0.00 | 46 | 1023.1 |
| 20260905104846 | 85 | 208 | 3.0 | 7.0 | 0.00 | 0.00 | 0.00 | 46 | 1023.2 |
| 20260905104347 | 85 | 208 | 2.0 | 7.0 | 0.00 | 0.00 | 0.00 | 47 | 1023.2 |
| 20260905103847 | 84 | 143 | 2.0 | 7.0 | 0.00 | 0.00 | 0.00 | 47 | 1023.3 |
| 20260905103348 | 84 | 192 | 2.0 | 7.0 | 0.00 | 0.00 | 0.00 | 47 | 1023.3 |
| 20260905102846 | 84 | 198 | 3.0 | 9.0 | 0.00 | 0.00 | 0.00 | 48 | 1023.2 |
| 20260905102344 | 83 | 198 | 4.0 | 9.0 | 0.00 | 0.00 | 0.00 | 48 | 1023.2 |
| 20260905101344 | 83 | 108 | 2.0 | 6.0 | 0.00 | 0.00 | 0.00 | 50 | 1023.2 |
| 20260905095842 | 83 | 150 | 2.0 | 6.0 | 0.00 | 0.00 | 0.00 | 51 | 1023.1 |
| 20260905095344 | 83 | 188 | 3.0 | 7.0 | 0.00 | 0.00 | 0.00 | 51 | 1023.1 |
| 20260905094841 | 82 | 155 | 3.0 | 7.0 | 0.00 | 0.00 | 0.00 | 53 | 1023.0 |
| 20260905093338 | 82 | 237 | 3.0 | 7.0 | 0.00 | 0.00 | 0.00 | 54 | 1023.1 |
| 20260905092839 | 82 | 201 | 2.0 | 7.0 | 0.00 | 0.00 | 0.00 | 56 | 1023.1 |
| 20260905091838 | 81 | 198 | 3.0 | 8.0 | 0.00 | 0.00 | 0.00 | 58 | 1023.0 |
| 20260905090838 | 80 | 166 | 4.0 | 8.0 | 0.00 | 0.00 | 0.00 | 57 | 1023.0 |
| 20260905090337 | 80 | 145 | 3.0 | 8.0 | 0.00 | 0.00 | 0.00 | 56 | 1023.0 |
| 20260905085832 | 80 | 154 | 4.0 | 10.0 | 0.00 | 0.00 | 0.00 | 58 | 1022.8 |
| 20260905085325 | 80 | 232 | 4.0 | 10.0 | 0.00 | 0.00 | 0.00 | 58 | 1022.8 |
| 20260905084822 | 80 | 143 | 3.0 | 7.0 | 0.00 | 0.00 | 0.00 | 58 | 1023.1 |
| 20260905084323 | 80 | 126 | 2.0 | 7.0 | 0.00 | 0.00 | 0.00 | 58 | 1023.1 |
| 20260905083822 | 81 | 141 | 1.0 | 7.0 | 0.00 | 0.00 | 0.00 | 57 | 1023.0 |
| 20260905082821 | 80 | 142 | 1.0 | 4.0 | 0.00 | 0.00 | 0.00 | 58 | 1023.1 |
| 20260905082320 | 79 | 165 | 1.0 | 4.0 | 0.00 | 0.00 | 0.00 | 59 | 1023.1 |
| 20260905081318 | 79 | 207 | 2.0 | 4.0 | 0.00 | 0.00 | 0.00 | 58 | 1023.0 |
| 20260905080821 | 79 | 143 | 1.0 | 4.0 | 0.00 | 0.00 | 0.00 | 58 | 1022.9 |
| 20260905075315 | 78 | 147 | 1.0 | 5.0 | 0.00 | 0.00 | 0.00 | 60 | 1022.8 |
| 20260905074818 | 78 | 144 | 1.0 | 3.0 | 0.00 | 0.00 | 0.00 | 59 | 1022.8 |
| 20260905074315 | 78 | 207 | 1.0 | 2.0 | 0.00 | 0.00 | 0.00 | 59 | 1022.9 |
| 20260905073809 | 78 | 218 | 1.0 | 3.0 | 0.00 | 0.00 | 0.00 | 59 | 1022.8 |
| 20260905072804 | 77 | 202 | 1.0 | 5.0 | 0.00 | 0.00 | 0.00 | 57 | 1022.6 |
| 20260905072306 | 78 | 211 | 1.0 | 3.0 | 0.00 | 0.00 | 0.00 | 60 | 1022.6 |
| 20260905071801 | 78 | 167 | 1.0 | 3.0 | 0.00 | 0.00 | 0.00 | 59 | 1022.6 |
| 20260905071302 | 78 | 162 | 1.0 | 3.0 | 0.00 | 0.00 | 0.00 | 58 | 1022.6 |
| 20260905070800 | 78 | 153 | 1.0 | 3.0 | 0.00 | 0.00 | 0.00 | 57 | 1022.5 |
| 20260905064758 | 78 | 149 | 0.0 | 1.0 | 0.00 | 0.00 | 0.00 | 57 | 1022.5 |
| 20260905064259 | 77 | 213 | 0.0 | 1.0 | 0.00 | 0.00 | 0.00 | 58 | 1022.3 |
| 20260905063258 | 77 | 152 | 0.0 | 1.0 | 0.00 | 0.00 | 0.00 | 58 | 1022.3 |
| 20260905062757 | 76 | 139 | 0.0 | 2.0 | 0.00 | 0.00 | 0.00 | 59 | 1022.3 |
| 20260905062254 | 76 | 157 | 0.0 | 2.0 | 0.00 | 0.00 | 0.00 | 58 | 1022.3 |
| 20260905061244 | 76 | 165 | 0.0 | 0.0 | 0.00 | 0.00 | 0.00 | 58 | 1022.5 |
| 20260905060744 | 76 | 153 | 0.0 | 1.0 | 0.00 | 0.00 | 0.00 | 60 | 1022.3 |
| 20260905060240 | 76 | 139 | 0.0 | 1.0 | 0.00 | 0.00 | 0.00 | 59 | 1022.2 |
| 20260905055742 | 75 | 144 | 0.0 | 1.0 | 0.00 | 0.00 | 0.00 | 58 | 1022.2 |
| 20260905055241 | 75 | 152 | 0.0 | 0.0 | 0.00 | 0.00 | 0.00 | 58 | 1022.2 |
| 20260905054739 | 74 | 26 | 0.0 | 0.0 | 0.00 | 0.00 | 0.00 | 59 | 1022.2 |
| 20260905054240 | 73 | 26 | 0.0 | 0.0 | 0.00 | 0.00 | 0.00 | 60 | 1022.3 |
| 20260905053239 | 74 | 26 | 0.0 | 0.0 | 0.00 | 0.00 | 0.00 | 61 | 1022.5 |
| 20260905052739 | 74 | 26 | 0.0 | 0.0 | 0.00 | 0.00 | 0.00 | 59 | 1022.3 |
| 20260905052236 | 74 | 27 | 0.0 | 0.0 | 0.00 | 0.00 | 0.00 | 59 | 1022.3 |
| 20260905051735 | 74 | 27 | 0.0 | 0.0 | 0.00 | 0.00 | 0.00 | 59 | 1022.2 |
| 20260905051237 | 73 | 27 | 0.0 | 0.0 | 0.00 | 0.00 | 0.00 | 60 | 1022.1 |
| 20260905045231 | 71 | 333 | 0.0 | 0.0 | 0.00 | 0.00 | 0.00 | 65 | 1022.1 |
| 20260905044727 | 70 | 333 | 0.0 | 0.0 | 0.00 | 0.00 | 0.00 | 67 | 1022.2 |
| 20260905044226 | 69 | 333 | 0.0 | 2.0 | 0.00 | 0.00 | 0.00 | 68 | 1022.1 |
| 20260905043727 | 69 | 333 | 1.0 | 3.0 | 0.00 | 0.00 | 0.00 | 68 | 1022.1 |
| 20260905043224 | 69 | 333 | 1.0 | 4.0 | 0.00 | 0.00 | 0.00 | 69 | 1022.0 |
| 20260905042723 | 69 | 341 | 1.0 | 4.0 | 0.00 | 0.00 | 0.00 | 68 | 1022.0 |
| 20260905042224 | 70 | 327 | 0.0 | 3.0 | 0.00 | 0.00 | 0.00 | 68 | 1022.0 |
| 20260905041726 | 71 | 302 | 0.0 | 0.0 | 0.00 | 0.00 | 0.00 | 69 | 1021.9 |
| 20260905041223 | 71 | 37 | 0.0 | 0.0 | 0.00 | 0.00 | 0.00 | 69 | 1021.9 |
| 20260905040720 | 72 | 37 | 0.0 | 0.0 | 0.00 | 0.00 | 0.00 | 70 | 1021.8 |
| 20260905040220 | 71 | 37 | 0.0 | 0.0 | 0.00 | 0.00 | 0.00 | 71 | 1021.8 |
| 20260905035718 | 70 | 37 | 0.0 | 0.0 | 0.00 | 0.00 | 0.00 | 75 | 1021.8 |
| 20260905035214 | 70 | 37 | 0.0 | 0.0 | 0.00 | 0.00 | 0.00 | 77 | 1021.8 |
| 20260905034212 | 71 | 37 | 0.0 | 0.0 | 0.00 | 0.00 | 0.00 | 79 | 1021.8 |
| 20260905033713 | 71 | 37 | 0.0 | 0.0 | 0.00 | 0.00 | 0.00 | 78 | 1021.8 |
| 20260905032713 | 72 | 37 | 0.0 | 0.0 | 0.00 | 0.00 | 0.00 | 75 | 1021.9 |
| 20260905032213 | 72 | 37 | 0.0 | 0.0 | 0.00 | 0.00 | 0.00 | 73 | 1021.9 |
| 20260905031711 | 72 | 37 | 0.0 | 0.0 | 0.00 | 0.00 | 0.00 | 72 | 1021.9 |
| 20260905031208 | 72 | 37 | 0.0 | 0.0 | 0.00 | 0.00 | 0.00 | 70 | 1021.9 |
| 20260905030709 | 72 | 37 | 0.0 | 0.0 | 0.00 | 0.00 | 0.00 | 69 | 1021.8 |
| 20260905030207 | 72 | 35 | 0.0 | 0.0 | 0.00 | 0.00 | 0.00 | 66 | 1021.9 |
| 20260905025709 | 72 | 26 | 0.0 | 0.0 | 0.00 | 0.00 | 0.00 | 65 | 1021.9 |
| 20260905025209 | 72 | 18 | 0.0 | 0.0 | 0.00 | 0.00 | 0.00 | 63 | 1022.0 |
| 20260905024210 | 72 | 18 | 0.0 | 0.0 | 0.00 | 0.00 | 0.00 | 61 | 1022.0 |
| 20260905022703 | 74 | 18 | 0.0 | 0.0 | 0.00 | 0.00 | 0.00 | 59 | 1022.1 |
| 20260905022204 | 73 | 18 | 0.0 | 0.0 | 0.00 | 0.00 | 0.00 | 60 | 1022.1 |
| 20260905021704 | 73 | 18 | 0.0 | 0.0 | 0.00 | 0.00 | 0.00 | 61 | 1022.2 |
| 20260905021206 | 73 | 18 | 0.0 | 0.0 | 0.00 | 0.00 | 0.00 | 61 | 1022.1 |
| 20260905020203 | 73 | 18 | 0.0 | 0.0 | 0.00 | 0.00 | 0.00 | 61 | 1022.3 |
| 20260905015702 | 74 | 18 | 0.0 | 0.0 | 0.00 | 0.00 | 0.00 | 60 | 1022.2 |
| 20260905015200 | 73 | 18 | 0.0 | 0.0 | 0.00 | 0.00 | 0.00 | 60 | 1022.2 |
| 20260905014656 | 73 | 18 | 0.0 | 0.0 | 0.00 | 0.00 | 0.00 | 61 | 1022.2 |
| 20260905014152 | 73 | 18 | 0.0 | 0.0 | 0.00 | 0.00 | 0.00 | 62 | 1022.3 |
| 20260905013645 | 73 | 18 | 0.0 | 0.0 | 0.00 | 0.00 | 0.00 | 62 | 1022.3 |
| 20260905013143 | 74 | 18 | 0.0 | 0.0 | 0.00 | 0.00 | 0.00 | 62 | 1022.2 |
| 20260905012639 | 73 | 18 | 0.0 | 0.0 | 0.00 | 0.00 | 0.00 | 63 | 1022.3 |
| 20260905011640 | 73 | 18 | 0.0 | 0.0 | 0.00 | 0.00 | 0.00 | 63 | 1022.3 |
| 20260905010642 | 73 | 18 | 0.0 | 0.0 | 0.00 | 0.00 | 0.00 | 63 | 1022.2 |
| 20260905010137 | 73 | 16 | 0.0 | 0.0 | 0.00 | 0.00 | 0.00 | 62 | 1022.2 |
| 20260905005640 | 72 | 16 | 0.0 | 0.0 | 0.00 | 0.00 | 0.00 | 62 | 1022.3 |
| 20260905005138 | 72 | 16 | 0.0 | 0.0 | 0.00 | 0.00 | 0.00 | 62 | 1022.3 |
| 20260905004635 | 72 | 16 | 0.0 | 0.0 | 0.00 | 0.00 | 0.00 | 62 | 1022.3 |
| 20260905004135 | 72 | 271 | 0.0 | 0.0 | 0.00 | 0.00 | 0.00 | 62 | 1022.3 |
| 20260905003635 | 72 | 271 | 0.0 | 0.0 | 0.00 | 0.00 | 0.00 | 62 | 1022.3 |
| 20260905002633 | 72 | 271 | 0.0 | 0.0 | 0.00 | 0.00 | 0.00 | 64 | 1022.6 |
| 20260905002126 | 72 | 271 | 0.0 | 0.0 | 0.00 | 0.00 | 0.00 | 64 | 1022.5 |
| 20260905001628 | 72 | 271 | 0.0 | 0.0 | 0.00 | 0.00 | 0.00 | 62 | 1022.5 |
| 20260905000624 | 73 | 271 | 0.0 | 0.0 | 0.00 | 0.00 | 0.00 | 60 | 1022.5 |
| 20260905000121 | 73 | 271 | 0.0 | 0.0 | 0.00 | 0.00 | 0.00 | 59 | 1022.6 |
| 20260904235117 | 74 | 271 | 0.0 | 0.0 | 0.00 | 0.00 | 0.00 | 58 | 1022.7 |
| 20260904234617 | 75 | 271 | 0.0 | 0.0 | 0.00 | 0.00 | 0.00 | 57 | 1022.7 |
| 20260904234119 | 75 | 271 | 0.0 | 0.0 | 0.00 | 0.00 | 0.00 | 57 | 1022.7 |
| 20260904233619 | 75 | 271 | 0.0 | 0.0 | 0.00 | 0.00 | 0.00 | 57 | 1022.7 |
| 20260904233115 | 75 | 271 | 0.0 | 0.0 | 0.00 | 0.00 | 0.00 | 58 | 1022.8 |
| 20260904232614 | 75 | 271 | 0.0 | 0.0 | 0.00 | 0.00 | 0.00 | 59 | 1022.8 |
| 20260904232112 | 74 | 271 | 0.0 | 0.0 | 0.00 | 0.00 | 0.00 | 63 | 1022.7 |
| 20260904231613 | 74 | 268 | 0.0 | 0.0 | 0.00 | 0.00 | 0.00 | 63 | 1022.8 |
| 20260904231113 | 74 | 268 | 0.0 | 0.0 | 0.00 | 0.00 | 0.00 | 61 | 1022.8 |
| 20260904230607 | 74 | 268 | 0.0 | 0.0 | 0.00 | 0.00 | 0.00 | 61 | 1022.9 |
| 20260904230117 | 74 | 268 | 0.0 | 0.0 | 0.00 | 0.00 | 0.00 | 60 | 1022.9 |
| 20260904225604 | 74 | 268 | 0.0 | 0.0 | 0.00 | 0.00 | 0.00 | 59 | 1023.0 |
| 20260904225102 | 74 | 268 | 0.0 | 0.0 | 0.00 | 0.00 | 0.00 | 57 | 1023.0 |
| 20260904223604 | 75 | 268 | 0.0 | 0.0 | 0.00 | 0.00 | 0.00 | 53 | 1023.1 |
| 20260904223102 | 75 | 268 | 0.0 | 0.0 | 0.00 | 0.00 | 0.00 | 52 | 1023.1 |
| 20260904222559 | 76 | 268 | 0.0 | 0.0 | 0.00 | 0.00 | 0.00 | 52 | 1023.1 |
| 20260904222056 | 76 | 268 | 0.0 | 0.0 | 0.00 | 0.00 | 0.00 | 51 | 1023.1 |
| 20260904221556 | 76 | 268 | 0.0 | 1.0 | 0.00 | 0.00 | 0.00 | 51 | 1023.1 |
| 20260904221056 | 77 | 268 | 0.0 | 1.0 | 0.00 | 0.00 | 0.00 | 50 | 1023.1 |
| 20260904220555 | 76 | 266 | 0.0 | 0.0 | 0.00 | 0.00 | 0.00 | 51 | 1023.1 |
| 20260904220053 | 76 | 265 | 0.0 | 1.0 | 0.00 | 0.00 | 0.00 | 52 | 1023.1 |
| 20260904215553 | 77 | 266 | 0.0 | 1.0 | 0.00 | 0.00 | 0.00 | 51 | 1023.1 |
| 20260904215049 | 77 | 257 | 0.0 | 1.0 | 0.00 | 0.00 | 0.00 | 52 | 1023.1 |
| 20260904214544 | 77 | 266 | 0.0 | 1.0 | 0.00 | 0.00 | 0.00 | 53 | 1023.2 |
| 20260904214043 | 76 | 262 | 0.0 | 1.0 | 0.00 | 0.00 | 0.00 | 53 | 1023.1 |
| 20260904213541 | 77 | 245 | 0.0 | 1.0 | 0.00 | 0.00 | 0.00 | 54 | 1023.1 |
| 20260904213041 | 77 | 248 | 0.0 | 1.0 | 0.00 | 0.00 | 0.00 | 54 | 1023.1 |
| 20260904212542 | 77 | 258 | 0.0 | 1.0 | 0.00 | 0.00 | 0.00 | 54 | 1023.0 |
| 20260904212040 | 77 | 258 | 0.0 | 0.0 | 0.00 | 0.00 | 0.00 | 55 | 1023.0 |
| 20260904211540 | 77 | 250 | 0.0 | 0.0 | 0.00 | 0.00 | 0.00 | 56 | 1023.0 |
| 20260904210533 | 77 | 250 | 0.0 | 2.0 | 0.00 | 0.00 | 0.00 | 56 | 1023.1 |
| 20260904210031 | 77 | 233 | 0.0 | 0.0 | 0.00 | 0.00 | 0.00 | 56 | 1023.1 |
| 20260904205531 | 77 | 204 | 0.0 | 0.0 | 0.00 | 0.00 | 0.00 | 57 | 1023.2 |
| 20260904205031 | 77 | 204 | 0.0 | 0.0 | 0.00 | 0.00 | 0.00 | 57 | 1023.2 |
| 20260904204531 | 77 | 193 | 0.0 | 1.0 | 0.00 | 0.00 | 0.00 | 57 | 1023.2 |
| 20260904204032 | 77 | 194 | 0.0 | 1.0 | 0.00 | 0.00 | 0.00 | 57 | 1023.1 |
| 20260904203529 | 76 | 223 | 0.0 | 1.0 | 0.00 | 0.00 | 0.00 | 57 | 1023.2 |
| 20260904203023 | 76 | 209 | 0.0 | 1.0 | 0.00 | 0.00 | 0.00 | 57 | 1023.2 |
| 20260904202019 | 77 | 212 | 0.0 | 0.0 | 0.00 | 0.00 | 0.00 | 57 | 1023.2 |
| 20260904201013 | 77 | 206 | 0.0 | 0.0 | 0.00 | 0.00 | 0.00 | 57 | 1023.2 |
| 20260904200511 | 77 | 205 | 0.0 | 2.0 | 0.00 | 0.00 | 0.00 | 57 | 1023.2 |
| 20260904200011 | 77 | 205 | 0.0 | 2.0 | 0.00 | 0.00 | 0.00 | 57 | 1023.3 |
| 20260904195513 | 78 | 219 | 0.0 | 1.0 | 0.00 | 0.00 | 0.00 | 57 | 1023.1 |
| 20260904194508 | 78 | 216 | 0.0 | 2.0 | 0.00 | 0.00 | 0.00 | 56 | 1023.2 |
| 20260904194010 | 78 | 242 | 0.0 | 0.0 | 0.00 | 0.00 | 0.00 | 57 | 1023.2 |
| 20260904193507 | 78 | 242 | 0.0 | 1.0 | 0.00 | 0.00 | 0.00 | 58 | 1023.2 |
| 20260904193009 | 78 | 217 | 0.0 | 1.0 | 0.00 | 0.00 | 0.00 | 58 | 1023.2 |
| 20260904192507 | 78 | 224 | 0.0 | 0.0 | 0.00 | 0.00 | 0.00 | 59 | 1023.2 |
| 20260904192009 | 78 | 217 | 0.0 | 0.0 | 0.00 | 0.00 | 0.00 | 60 | 1023.2 |
| 20260904191000 | 78 | 207 | 0.0 | 3.0 | 0.00 | 0.00 | 0.00 | 59 | 1023.3 |
| 20260904190502 | 78 | 221 | 0.0 | 0.0 | 0.00 | 0.00 | 0.00 | 60 | 1023.3 |
| 20260904190004 | 78 | 225 | 0.0 | 1.0 | 0.00 | 0.00 | 0.00 | 60 | 1023.1 |
| 20260904185502 | 78 | 225 | 0.0 | 1.0 | 0.00 | 0.00 | 0.00 | 59 | 1023.2 |
| 20260904185000 | 78 | 212 | 0.0 | 1.0 | 0.00 | 0.00 | 0.00 | 62 | 1023.1 |
| 20260904184457 | 78 | 163 | 0.0 | 1.0 | 0.00 | 0.00 | 0.00 | 62 | 1023.1 |
| 20260904183957 | 79 | 129 | 0.0 | 1.0 | 0.00 | 0.00 | 0.00 | 61 | 1023.0 |
| 20260904183454 | 79 | 122 | 0.0 | 0.0 | 0.00 | 0.00 | 0.00 | 59 | 1023.0 |
| 20260904182955 | 79 | 155 | 0.0 | 0.0 | 0.00 | 0.00 | 0.00 | 58 | 1022.8 |
| 20260904181955 | 80 | 144 | 0.0 | 0.0 | 0.00 | 0.00 | 0.00 | 56 | 1022.6 |
| 20260904181507 | 80 | 144 | 0.0 | 1.0 | 0.00 | 0.00 | 0.00 | 55 | 1022.6 |
| 20260904180952 | 80 | 218 | 0.0 | 5.0 | 0.00 | 0.00 | 0.00 | 55 | 1022.6 |
| 20260904180450 | 80 | 222 | 0.0 | 5.0 | 0.00 | 0.00 | 0.00 | 54 | 1022.5 |
| 20260904175951 | 81 | 161 | 0.0 | 1.0 | 0.00 | 0.00 | 0.00 | 55 | 1022.5 |
| 20260904175444 | 81 | 136 | 0.0 | 1.0 | 0.00 | 0.00 | 0.00 | 55 | 1022.5 |
| 20260904174939 | 81 | 188 | 0.0 | 3.0 | 0.00 | 0.00 | 0.00 | 55 | 1022.3 |
| 20260904174440 | 82 | 216 | 0.0 | 3.0 | 0.00 | 0.00 | 0.00 | 54 | 1022.2 |
| 20260904173937 | 82 | 226 | 1.0 | 7.0 | 0.00 | 0.00 | 0.00 | 53 | 1022.3 |
| 20260904173436 | 83 | 234 | 1.0 | 7.0 | 0.00 | 0.00 | 0.00 | 53 | 1022.1 |
| 20260904172437 | 84 | 131 | 0.0 | 4.0 | 0.00 | 0.00 | 0.00 | 52 | 1022.2 |
| 20260904171938 | 84 | 220 | 2.0 | 5.0 | 0.00 | 0.00 | 0.00 | 52 | 1022.3 |
| 20260904170939 | 85 | 231 | 2.0 | 7.0 | 0.00 | 0.00 | 0.00 | 51 | 1022.3 |
| 20260904165937 | 86 | 215 | 1.0 | 6.0 | 0.00 | 0.00 | 0.00 | 50 | 1022.3 |
| 20260904165438 | 86 | 199 | 2.0 | 7.0 | 0.00 | 0.00 | 0.00 | 50 | 1022.3 |
| 20260904164939 | 86 | 240 | 2.0 | 7.0 | 0.00 | 0.00 | 0.00 | 49 | 1022.3 |
| 20260904164438 | 86 | 197 | 2.0 | 7.0 | 0.00 | 0.00 | 0.00 | 49 | 1022.3 |
| 20260904163930 | 87 | 221 | 2.0 | 6.0 | 0.00 | 0.00 | 0.00 | 48 | 1022.3 |
| 20260904163425 | 87 | 232 | 2.0 | 9.0 | 0.00 | 0.00 | 0.00 | 48 | 1022.3 |
| 20260904162420 | 88 | 195 | 3.0 | 8.0 | 0.00 | 0.00 | 0.00 | 46 | 1022.3 |
| 20260904161923 | 88 | 219 | 3.0 | 10.0 | 0.00 | 0.00 | 0.00 | 46 | 1022.3 |
| 20260904161420 | 88 | 210 | 3.0 | 10.0 | 0.00 | 0.00 | 0.00 | 45 | 1022.3 |